Regional Weather Roundup
Issued by NWS State College, PA

Home | Current Version | Previous Version | Graphics & Text | Print | Product List | Glossary Off
Versions: 1 2 3 4 5 6 7 8 9 10 11 12 13 14 15 16 17 18 19 20 21 22 23 24 25 26 27 28 29 30 31 32 33 34 35 36 37 38 39 40 41 42 43 44 45 46 47 48 49 50

000
ASUS41 KCTP 261103
RWRCTP

REGIONAL WEATHER ROUNDUP
NATIONAL WEATHER SERVICE STATE COLLEGE PA
700 AM EDT FRI MAY 26 2017

Note: "fair" indicates few or no clouds below 12,000 feet with no
significant weather and/or obstructions to visibility.

* = STATION THAT DOES NOT REPORT PRECIPITATION /E.G. RAIN...SNOW...ETC/
    THUNDER OR FOG.

PAZ002>004-007>009-013>016-020>023-029>032-261200-
WESTERN PENNSYLVANIA

CITY           SKY/WX    TMP DP  RH WIND       PRES   REMARKS
ERIE           CLOUDY    54  53  97 W9        29.69R
MEADVILLE      CLOUDY    52  52 100 W6        29.71R
FRANKLIN*      CLOUDY    54  48  82 W8        29.71R
NEW CASTLE     CLOUDY    56  55  97 W6        29.73R FOG
BEAVER COUNTY  CLOUDY    57  55  94 W7        29.73
BUTLER*        CLOUDY    57  54  88 W8        29.72R
PITTSBURGH INT LGT RAIN  58  58 100 W6        29.72R FOG
PITTSBURGH     CLOUDY    58  54  86 W12G20    29.72R
INDIANA*       CLOUDY    57  57 100 NW10      29.72R
LATROBE        CLOUDY    57  57 100 W9        29.73R FOG
WASHINGTON CO* CLOUDY    57  54  88 W12       29.77R
$$

PAZ004>006-010>012-017>019-024>028-033>037-041-042-045-046-049>053-261200-
CENTRAL PENNSYLVANIA

CITY           SKY/WX    TMP DP  RH WIND       PRES   REMARKS
BRADFORD       CLOUDY    54  53  97 W7        29.65R
DUBOIS         FOG       54  52  93 W14       29.66R VSB 1
CLEARFIELD     CLOUDY    56  56 100 SW6       29.66R FOG
JOHNSTOWN      CLOUDY    54  53  97 W20G28    29.70R
ALTOONA        CLOUDY    58  56  93 SW8       29.68R
STATE COLLEGE  PTSUNNY   57  54  88 SW7       29.65R
WILLIAMSPORT   MOSUNNY   60  56  86 W8        29.60R
SELINSGROVE    MOSUNNY   58  56  93 CALM      29.62R
FT INDIANTOWN  SUNNY     60  57  88 W9        29.61
CAPITAL CITY   SUNNY     60  54  80 W7        29.63R
HARRISBURG     SUNNY     60  56  86 N3        29.62R
YORK           SUNNY     60  56  86 W7        29.63R
$$

PAZ038>040-043-044-047-048-054-055-060>062-067>071-261200-
EASTERN PENNSYLVANIA

CITY           SKY/WX    TMP DP  RH WIND       PRES   REMARKS
SCRANTON       CLOUDY    58  57  97 CALM      29.58R
MOUNT POCONO   CLOUDY    54  54 100 NW9       29.58R FOG
ALLENTOWN      PTSUNNY   60  56  86 W9        29.57R
QUAKERTOWN*    CLOUDY    57  57 100 W6        29.58R
READING        MOSUNNY   59  57  93 W9        29.59R
LANCASTER      SUNNY     59  57  93 W9        29.61R
COATESVILLE    SUNNY     59  57  94 W10       29.62R
POTTSTOWN      SUNNY     58  56  93 VRB3      29.60R
BLUE BELL      MOSUNNY   57  55  94 W3        29.60R
DOYLESTOWN     CLOUDY    58  32  37 SW6       29.57R
WILLOW GROVE   NOT AVBL
NORTH PHILA    MOSUNNY   61  58  90 W9        29.59R
PHILADELPHIA   MOSUNNY   61  57  87 W12       29.60R
$$



USA.gov is the U.S. government's official web portal to all federal, state and local government web resources and services.